Location: Seale
(32.2974°N, 85.1688°W)
Time: 10:31:41
(UTC+00:00)

Hubble Space Telescope - Pass Details

Date: 24 January 2021
Orbit: 536 x 539 km, 28.5° (Epoch: 26 February)

Event Time Altitude Azimuth Distance (km) Brightness Sun altitude
Rises 23:38:48 0° 265° (W) 2,673 6.3 -7.1°
Reaches altitude 10° 23:41:07 10° 259° (W) 1,783 5.1 -7.6°
Maximum altitude 23:45:04 46° 186° (S) 721 1.6 -8.4°
Drops below altitude 10° 23:49:02 10° 112° (ESE) 1,783 3.0 -9.2°
Enters shadow 23:49:41 - 110° (ESE) 2,030 3.2 -9.3°
